Miscellaneous Local Product
Issued by NWS North Platte, NE

Home | Current Version | Previous Version | Text Only | Print | Product List | Glossary On
Versions: 1 2 3 4 5 6 7 8 9 10 11 12 13 14 15 16 17 18 19 20 21 22 23 24 25 26 27 28 29 30 31 32 33 34 35 36 37 38 39 40 41 42 43 44 45 46 47 48 49 50
000
AXUS43 KLBF 291610
MISLBF


WESTERN AND NORTH CENTRAL NEBRASKA HOURLY WEATHER ROUNDUP
NATIONAL WEATHER SERVICE NORTH PLATTE NE
1100 AM CDT SUN MAY 29 2016

NOTE: "FAIR" INDICATES FEW OR NO CLOUDS BELOW 12,000 FEET WITH NO
SIGNIFICANT WEATHER AND/OR OBSTRUCTIONS TO VISIBILITY.

NOTE: STATIONS NOT REPORTING VARIABLES SUCH AS SKY/WEATHER OR
PRESSURE ARE PROVIDED BY RAWS AND APRS NETWORKS AND ARE NOT UNDER
NATIONAL WEATHER SERVICE QUALITY CONTROL.

...OBSERVATIONS IN AND NEAR THE EASTERN PANHANDLE OF NEBRASKA...

CITY           SKY/WX    TMP DP  RH WIND       PRES   REMARKS
PINE RIDGE     SUNNY     67  48  50 E5        30.10F
CHADRON        SUNNY     66  50  56 VRB3      30.10F
ALLIANCE       SUNNY     66  51  58 S10       30.12S
SIDNEY         SUNNY     70  48  45 SW10      30.15S
CRESCENT LAKE    N/A     68  50  51 S6          N/A
BIG SPRINGS      N/A     66  57  72 CALM        N/A
$$

...OBSERVATIONS IN NORTHERN NEBRASKA AND FAR SOUTHERN SOUTH DAKOTA...

CITY           SKY/WX    TMP DP  RH WIND       PRES   REMARKS
WINNER         FAIR      71  55  56 NE5       30.09F
VALENTINE      SUNNY     68  50  52 CALM      30.12S
THEDFORD       MOSUNNY   71  50  46 S5        30.14S
AINSWORTH      MOSUNNY   69  52  55 CALM      30.12F
O`NEILL        SUNNY     72  57  58 NW5       30.11F
ORD            SUNNY     73  58  59 N6        30.10S
BROKEN BOW     SUNNY     70  56  61 SW3       30.12S
BUTTE            N/A     71  58  64 CALM        N/A
CHAMBERS         N/A     83  58  42 CALM        N/A
EWING            N/A     72  57  59 CALM        N/A
$$

...OBSERVATIONS IN SOUTHWEST NEBRASKA AND FAR NORTHEAST COLORADO...

CITY           SKY/WX    TMP DP  RH WIND       PRES   REMARKS
WRAY           FAIR      70  50  49 S3        30.14S
IMPERIAL       SUNNY     68  55  63 SE3       30.13F
OGALLALA       SUNNY     70  53  54 S5        30.12F
NORTH PLATTE   SUNNY     68  53  58 CALM      30.13F
MCCOOK         SUNNY     71  56  58 E3        30.11F
LEXINGTON      SUNNY     70  55  59 CALM      30.12F
PAXTON           N/A     63  57  82 CALM        N/A
STAPLETON        N/A     72  54  53 CALM        N/A
GOTHENBURG       N/A     69  51  51 CALM        N/A
CALLAWAY         N/A     70  57  62 CALM        N/A
$$

...OBSERVATIONS IN CENTRAL LINCOLN COUNTY AREA...

CITY           SKY/WX    TMP DP  RH WIND       PRES   REMARKS
N.P. AIRPORT   SUNNY     68  53  58 CALM      30.13F
N.P. DOWNTOWN    N/A     70  55  57 CALM        N/A
N.P. SOUTHEAST   N/A     70  56  60 CALM        N/A
N.P. HILLCREST   N/A     69  56  62 CALM        N/A
$$

...SOME OBSERVATIONS FROM AROUND THE REGION...

CITY           SKY/WX    TMP DP  RH WIND       PRES   REMARKS
DENVER         MOSUNNY   67  41  38 W7        30.17F
LARAMIE        SUNNY     59  35  40 S5        30.24S
CHEYENNE       SUNNY     68  36  30 S10       30.19F
SCOTTSBLUFF    SUNNY     67  49  52 CALM      30.13S
RAPID CITY     PTSUNNY   64  49  57 S6        30.10F
BISMARCK       SUNNY     69  52  54 W10       30.03S
PIERRE         SUNNY     68  54  60 CALM      30.06F
SIOUX FALLS    MOSUNNY   72  60  66 NW8       30.05R
OMAHA          PTSUNNY   72  57  59 S6        30.09F
GRAND ISLAND   SUNNY     75  55  49 SW8       30.11S
KANSAS CITY    MOSUNNY   77  62  59 W8        30.13R
WICHITA        MOSUNNY   81  71  71 S5        30.11F
OKLAHOMA CITY  MOSUNNY   80  60  50 SW7       30.15F
DALLAS         CLOUDY    77  65  66 E5        30.08F
AMARILLO       SUNNY     77  58  51 S18G24    30.18F
DODGE CITY     MOSUNNY   77  60  55 S9        30.13S
HAYS           SUNNY     79  59  50 S9        30.11F
GOODLAND       SUNNY     74  52  46 S12       30.13F
$$




USA.gov is the U.S. government's official web portal to all federal, state and local government web resources and services.